Location: eljas
(40.1958°N, 6.8661°W)
Time: 05:12:42
(UTC+02:00)

Amateur Radio Satellites - All Passes

Search period start: 22 October 2014 04:42
Search period end: 23 October 2014 04:42
Location: eljas, 40.1958°N, 6.8661°W

Satellite Date Start Highest point End Downlink Frequencies (MHz)
Time Altitude Azimuth
Uribyol 2 22 Oct 04:47:26 04:52:41 86° 104° (ESE) 04:57:53 436.500 FM
Gurwin Techsat 1B 22 Oct 04:52:15 04:57:22 47° 99° (E) 05:02:28 435.225 FM
ITAMSAT 1 22 Oct 04:52:34 04:57:49 89° 104° (ESE) 05:03:02 435.822 SSB
PCSat 22 Oct 04:54:01 04:56:22 13° 103° (ESE) 04:58:42 145.825 MHz
AO-Echo 22 Oct 04:56:49 05:02:04 63° 287° (WNW) 05:07:18 ?
JAS-1B 22 Oct 05:01:03 05:07:19 55° 289° (WNW) 05:14:45 435.800 - 435.900 CW/SSB
TMSAT-1 22 Oct 05:05:45 05:10:52 46° 99° (E) 05:15:56 436.925 FM
Oscar 19 22 Oct 05:29:36 05:32:58 18° 297° (WNW) 05:36:21 437.125 CW, 437.150 USB
OPAL 22 Oct 05:36:02 05:39:52 22° 62° (ENE) 05:43:41 ?
AO-27 22 Oct 05:37:42 05:42:25 35° 292° (WNW) 05:47:07 436.795 MHz FM
RS-15 22 Oct 05:46:25 05:53:39 19° 7° (N) 06:01:00 29.354 - 29.394 USB, Beacon 29.352 USB
Sapphire 22 Oct 06:10:47 06:16:05 61° 114° (ESE) 06:21:26 437.095 MHz 1200 baud AX-25 AFSK
Uribyol 2 22 Oct 06:29:16 06:31:24 13° 301° (WNW) 06:33:31 436.500 FM
Gurwin Techsat 1B 22 Oct 06:32:58 06:37:00 22° 296° (WNW) 06:41:01 435.225 FM
PCSat 22 Oct 06:33:36 06:39:01 80° 299° (WNW) 06:44:28 145.825 MHz
ITAMSAT 1 22 Oct 06:34:36 06:36:31 12° 301° (WNW) 06:38:27 435.822 SSB
Uosat F 22 Oct 06:38:48 06:43:44 51° 100° (E) 06:48:37 435.120 FM
AO-7 22 Oct 06:41:47 06:50:04 65° 104° (ESE) 06:58:19 29.400 - 29.500 MHz
TMSAT-1 22 Oct 06:46:24 06:50:27 23° 296° (WNW) 06:54:29 436.925 FM
JAS-2 22 Oct 06:51:59 06:58:18 27° 92° (E) 07:04:37 435.800 - 435.900 CW/SSB, 435.910 FM
OPAL 22 Oct 07:13:26 07:18:24 48° 258° (WSW) 07:23:22 ?
STRAND 1 22 Oct 07:15:24 07:18:51 19° 63° (ENE) 07:22:19 ?
Sapphire 22 Oct 07:55:48 07:59:56 22° 313° (NW) 08:04:04 437.095 MHz 1200 baud AX-25 AFSK
RS-15 22 Oct 08:00:20 08:10:30 38° 40° (NE) 08:20:58 29.354 - 29.394 USB, Beacon 29.352 USB
Uosat F 22 Oct 08:18:35 08:22:06 19° 297° (WNW) 08:25:37 435.120 FM
PCSat 22 Oct 08:20:25 08:23:19 14° 319° (NW) 08:26:14 145.825 MHz
Hamsat 22 Oct 08:24:25 08:28:37 85° 283° (WNW) 08:32:49 145.90 MHz
AO-7 22 Oct 08:35:25 08:42:16 30° 303° (WNW) 08:49:07 29.400 - 29.500 MHz
JAS-2 22 Oct 08:36:04 08:43:40 66° 288° (WNW) 08:51:24 435.800 - 435.900 CW/SSB, 435.910 FM
SO-67 22 Oct 08:46:26 08:48:51 18° 94° (E) 08:51:15 435.3500 MHz FM
STRAND 1 22 Oct 08:52:34 08:57:35 55° 259° (W) 09:02:38 ?
Saudisat 1A 22 Oct 09:25:24 09:29:10 29° 114° (ESE) 09:32:57 436.775 MHz
RS-15 22 Oct 10:12:38 10:23:44 71° 244° (WSW) 10:35:20 29.354 - 29.394 USB, Beacon 29.352 USB
SO-67 22 Oct 10:19:00 10:21:47 23° 289° (WNW) 10:24:35 435.3500 MHz FM
JAS-2 22 Oct 10:23:46 10:27:20 14° 306° (NW) 10:30:57 435.800 - 435.900 CW/SSB, 435.910 FM
HO-68 22 Oct 10:52:33 10:59:13 39° 98° (E) 11:05:50 435.675 MHz FM
Saudisat 1A 22 Oct 11:04:46 11:08:39 30° 311° (NW) 11:12:34 436.775 MHz
UKube-1 22 Oct 11:20:17 11:23:37 21° 95° (E) 11:26:57 145.840 MHz, 145.915 MHz
FUNcube-1 22 Oct 11:54:42 11:57:45 19° 93° (E) 12:00:45 145.950 - 145.970 MHz USB
PANSAT 22 Oct 11:59:46 12:01:49 14° 178° (S) 12:03:53 not established
Oscar 11 22 Oct 12:03:56 12:08:13 61° 101° (E) 12:12:27 145.825 FM, Beacon 2401.500 USB
MaSat-1 22 Oct 12:14:44 12:17:02 27° 251° (WSW) 12:19:11 437.345 MHz
RS-15 22 Oct 12:28:47 12:34:04 15° 263° (W) 12:39:29 29.354 - 29.394 USB, Beacon 29.352 USB
KITSAT 1 22 Oct 12:36:49 12:39:26 12° 98° (E) 12:42:04 435.175 FM
HO-68 22 Oct 12:40:17 12:46:52 40° 296° (WNW) 12:53:25 435.675 MHz FM
ZACube-1 22 Oct 12:44:30 12:48:48 72° 102° (ESE) 12:52:58 437.345 MHz
UKube-1 22 Oct 12:55:56 12:59:51 33° 290° (WNW) 13:03:46 145.840 MHz, 145.915 MHz
FUNcube-1 22 Oct 13:30:21 13:34:14 34° 289° (WNW) 13:38:02 145.950 - 145.970 MHz USB
PANSAT 22 Oct 13:39:55 13:41:14 12° 191° (S) 13:42:33 not established
PCSat 22 Oct 13:40:40 13:43:10 13° 40° (NE) 13:45:40 145.825 MHz
Oscar 11 22 Oct 13:42:06 13:43:52 12° 297° (WNW) 13:45:37 145.825 FM, Beacon 2401.500 USB
JAS-1B 22 Oct 13:58:59 14:02:45 18° 61° (ENE) 14:06:24 435.800 - 435.900 CW/SSB
Oscar 16 22 Oct 14:12:31 14:16:41 25° 66° (ENE) 14:20:52 437.025 USB, Beacon 2401.1428
SO-50 22 Oct 14:22:51 14:26:02 19° 110° (ESE) 14:29:16 436.795 FM
ZACube-1 22 Oct 14:23:58 14:24:32 10° 299° (WNW) 14:25:07 437.345 MHz
KITSAT 1 22 Oct 14:25:22 14:33:22 71° 116° (ESE) 14:41:25 435.175 FM
Uribyol 2 22 Oct 14:28:03 14:31:05 16° 61° (ENE) 14:34:08 436.500 FM
AO-Echo 22 Oct 14:32:28 14:35:47 19° 63° (ENE) 14:39:11 ?
ITAMSAT 1 22 Oct 14:33:08 14:36:19 17° 61° (ENE) 14:39:30 435.822 SSB
ISS 22 Oct 14:34:49 14:37:15 19° 132° (SE) 14:39:43 145.800 FM
Sapphire 22 Oct 14:59:22 15:04:34 43° 55° (NE) 15:09:43 437.095 MHz 1200 baud AX-25 AFSK
Oscar 19 22 Oct 15:05:18 15:10:27 77° 75° (ENE) 15:15:36 437.125 CW, 437.150 USB
AO-27 22 Oct 15:15:56 15:20:46 41° 69° (ENE) 15:25:38 436.795 MHz FM
PCSat 22 Oct 15:22:09 15:27:35 72° 60° (ENE) 15:32:59 145.825 MHz
JAS-1B 22 Oct 15:46:53 15:53:00 62° 258° (WSW) 15:58:38 435.800 - 435.900 CW/SSB
Oscar 16 22 Oct 15:51:01 15:55:49 39° 262° (W) 16:00:38 437.025 USB, Beacon 2401.1428
AO-7 22 Oct 15:51:25 15:56:37 19° 50° (NE) 16:01:48 29.400 - 29.500 MHz
SO-50 22 Oct 16:01:54 16:06:13 45° 307° (NW) 16:10:40 436.795 FM
UOSAT-12 22 Oct 16:02:31 16:05:41 18° 110° (ESE) 16:08:54 437.025 FM, 437.400 FM
Uribyol 2 22 Oct 16:04:47 16:09:57 68° 258° (WSW) 16:15:11 436.500 FM
AO-Echo 22 Oct 16:09:26 16:14:07 50° 261° (W) 16:18:59 ?
ITAMSAT 1 22 Oct 16:10:05 16:15:14 65° 258° (WSW) 16:20:27 435.822 SSB
ISS 22 Oct 16:10:30 16:13:43 47° 328° (NNW) 16:16:58 145.800 FM
Gurwin Techsat 1B 22 Oct 16:12:44 16:18:00 70° 74° (ENE) 16:23:18 435.225 FM
KITSAT 1 22 Oct 16:22:32 16:29:26 30° 317° (NW) 16:36:24 435.175 FM
TMSAT-1 22 Oct 16:25:53 16:31:08 68° 74° (ENE) 16:36:25 436.925 FM
Sapphire 22 Oct 16:43:17 16:47:43 26° 252° (WSW) 16:52:08 437.095 MHz 1200 baud AX-25 AFSK
Oscar 19 22 Oct 16:48:26 16:50:19 12° 271° (W) 16:52:13 437.125 CW, 437.150 USB
AO-27 22 Oct 16:56:15 17:00:23 24° 266° (W) 17:04:35 436.795 MHz FM
PCSat 22 Oct 17:07:24 17:10:20 15° 257° (WSW) 17:13:15 145.825 MHz
AO-7 22 Oct 17:39:53 17:48:09 81° 70° (ENE) 17:56:27 29.400 - 29.500 MHz
UOSAT-12 22 Oct 17:40:55 17:45:26 50° 307° (NW) 17:50:02 437.025 FM, 437.400 FM
ISS 22 Oct 17:49:08 17:51:04 14° 347° (NNW) 17:53:00 145.800 FM
Uosat F 22 Oct 17:51:25 17:56:23 67° 73° (ENE) 18:01:24 435.120 FM
Saudisat 1A 22 Oct 17:52:21 17:55:54 23° 46° (NE) 17:59:25 436.775 MHz
Gurwin Techsat 1B 22 Oct 17:55:47 17:58:27 14° 270° (W) 18:01:08 435.225 FM
TMSAT-1 22 Oct 18:08:46 18:11:32 14° 270° (W) 18:14:19 436.925 FM
KITSAT 1 22 Oct 18:26:07 18:28:05 11° 345° (NNW) 18:30:04 435.175 FM
JAS-2 22 Oct 18:47:43 18:53:20 54° 70° (ENE) 18:59:42 435.800 - 435.900 CW/SSB, 435.910 FM
Hamsat 22 Oct 19:16:53 19:21:03 62° 75° (ENE) 19:25:12 145.90 MHz
OPAL 22 Oct 19:23:50 19:28:36 45° 101° (ESE) 19:33:19 ?
ISS 22 Oct 19:27:20 19:28:52 13° 8° (N) 19:30:25 145.800 FM
Saudisat 1A 22 Oct 19:31:27 19:35:37 42° 244° (WSW) 19:39:46 436.775 MHz
Uosat F 22 Oct 19:33:14 19:35:37 13° 269° (W) 19:38:02 435.120 FM
AO-7 22 Oct 19:35:59 19:41:44 20° 268° (W) 19:47:32 29.400 - 29.500 MHz
KITSAT 1 22 Oct 20:25:38 20:28:10 12° 17° (NNE) 20:30:42 435.175 FM
JAS-2 22 Oct 20:34:32 20:38:55 22° 271° (W) 20:43:42 435.800 - 435.900 CW/SSB, 435.910 FM
SO-67 22 Oct 20:50:08 20:53:34 84° 258° (WSW) 20:57:02 435.3500 MHz FM
Hamsat 22 Oct 20:56:41 20:57:22 10° 270° (W) 20:58:04 145.90 MHz
ISS 22 Oct 21:03:24 21:06:24 30° 27° (NNE) 21:09:24 145.800 FM
OPAL 22 Oct 21:03:28 21:07:10 21° 298° (WNW) 21:10:50 ?
STRAND 1 22 Oct 21:03:40 21:08:43 52° 100° (E) 21:13:43 ?
HO-68 22 Oct 21:21:10 21:27:05 29° 61° (ENE) 21:33:01 435.675 MHz FM
UKube-1 22 Oct 22:15:44 22:18:43 18° 65° (ENE) 22:21:42 145.840 MHz, 145.915 MHz
KITSAT 1 22 Oct 22:19:29 22:26:38 33° 45° (NE) 22:33:44 435.175 FM
RS-15 22 Oct 22:28:26 22:35:01 18° 99° (E) 22:41:30 29.354 - 29.394 USB, Beacon 29.352 USB
ISS 22 Oct 22:40:03 22:43:07 34° 224° (SW) 22:46:10 145.800 FM
STRAND 1 22 Oct 22:43:53 22:47:29 20° 297° (WNW) 22:51:04 ?
FUNcube-1 22 Oct 22:50:49 22:53:46 17° 65° (ENE) 22:56:42 145.950 - 145.970 MHz USB
SO-50 22 Oct 22:53:58 22:57:33 20° 44° (NE) 23:01:09 436.795 FM
Oscar 11 22 Oct 22:58:19 23:02:25 44° 72° (ENE) 23:06:33 145.825 FM, Beacon 2401.500 USB
HO-68 22 Oct 23:07:23 23:14:22 56° 258° (WSW) 23:21:25 435.675 MHz FM
ZACube-1 22 Oct 23:39:51 23:44:20 55° 74° (ENE) 23:48:48 437.345 MHz
UKube-1 22 Oct 23:50:30 23:54:35 40° 261° (W) 23:58:43 145.840 MHz, 145.915 MHz
KITSAT 1 23 Oct 00:14:35 00:22:31 63° 246° (WSW) 00:30:26 435.175 FM
FUNcube-1 23 Oct 00:25:19 00:29:46 48° 261° (W) 00:34:11 145.950 - 145.970 MHz USB
UOSAT-12 23 Oct 00:31:51 00:35:03 18° 42° (NE) 00:38:14 437.025 FM, 437.400 FM
SO-50 23 Oct 00:33:42 00:38:30 61° 242° (WSW) 00:43:18 436.795 FM
RS-15 23 Oct 00:34:33 00:45:34 83° 119° (ESE) 00:56:31 29.354 - 29.394 USB, Beacon 29.352 USB
Oscar 11 23 Oct 00:36:13 00:38:48 16° 268° (W) 00:41:25 145.825 FM, Beacon 2401.500 USB
ZACube-1 23 Oct 01:18:35 01:21:01 14° 269° (W) 01:23:27 437.345 MHz
MaSat-1 23 Oct 01:50:19 01:54:31 62° 113° (ESE) 01:58:22 437.345 MHz
UOSAT-12 23 Oct 02:11:00 02:15:42 69° 241° (WSW) 02:20:17 437.025 FM, 437.400 FM
RS-15 23 Oct 02:49:41 02:59:13 33° 324° (NW) 03:08:50 29.354 - 29.394 USB, Beacon 29.352 USB
Oscar 19 23 Oct 03:18:00 03:22:22 28° 96° (E) 03:26:42 437.125 CW, 437.150 USB
MaSat-1 23 Oct 03:28:40 03:30:28 13° 307° (NW) 03:32:13 437.345 MHz
JAS-1B 23 Oct 03:29:34 03:35:41 37° 99° (E) 03:42:48 435.800 - 435.900 CW/SSB
AO-27 23 Oct 03:30:54 03:33:49 15° 91° (E) 03:36:43 436.795 MHz FM
Oscar 16 23 Oct 04:02:49 04:07:57 78° 103° (ESE) 04:13:04 437.025 USB, Beacon 2401.1428
AO-Echo 23 Oct 04:16:44 04:21:58 56° 100° (E) 04:27:10 ?
Uribyol 2 23 Oct 04:18:14 04:23:14 45° 99° (E) 04:28:11 436.500 FM
ITAMSAT 1 23 Oct 04:23:37 04:28:40 48° 100° (E) 04:33:41 435.822 SSB
Gurwin Techsat 1B 23 Oct 04:30:00 04:34:35 29° 96° (E) 04:39:09 435.225 FM
